Weather History for KSYR - March, 2011

Change the Weather History Date:

Tuesday, March 1, 2011

  Actual Average Record
Temperature  
Mean Temperature 28 °F 29 °F  
Max Temperature 36 °F 38 °F 63 °F (1954)
Min Temperature 20 °F 20 °F -8 °F (1980)
Degree Days  
Heating Degree Days 37 36  
Month to date heating degree days 37 36  
Since 1 July heating degree days 5028 4867  
Cooling Degree Days 0 0  
Month to date cooling degree days 0 0  
Year to date cooling degree days 0 0  
Moisture  
Dew Point 12 °F    
Average Humidity 52    
Maximum Humidity 72    
Minimum Humidity 32    
Precipitation  
Precipitation T in 0.08 in 1.29 in (1955)
Month to date precipitation T 0.08  
Year to date precipitation 4.08 4.65  
Snow  
Snow T in 0.80 in 9.30 in (1984)
Month to date snowfall T 0.8  
Since 1 July snowfall 160.3 102.7  
Snow Depth 6.00 in    
Sea Level Pressure  
Sea Level Pressure 30.21 in    
Wind  
Wind Speed 8 mph (NW)    
Max Wind Speed 20 mph    
Max Gust Speed 28 mph    
Visibility 10 miles    
Events Snow    
T = Trace of Precipitation, MM = Missing Value Source: NWS Daily Summary

Daily Weather History Graph

Daily Weather History Graph

Search for Another Location

Airport or City:

Trip Planner

Search our weather history database for the weather conditions in past years. The results will help you decide how hot, cold, wet, or windy it might be!

Date:

Astronomy

Mar. 01, 2011 Rise Set
Actual Time 6:40 AM EST 5:53 PM EST
Civil Twilight 6:12 AM EST 6:21 PM EST
Nautical Twilight 5:39 AM EST 6:54 PM EST
Astronomical Twilight 5:06 AM EST 7:27 PM EST
Moon 4:52 AM EST (3/1) 3:03 PM EST (3/1)
Length of Visible Light 12h 09m
Length of Day
11h 12m
Waning Crescent, 9% of the Moon is Illuminated
Mar 1
Waning Crescent
Mar 4
New
Mar 12
First Quarter
Mar 19
Full
Mar 26
Last Quarter

Hourly Weather History & Observations

Time (EST) Temp. Windchill Dew Point Humidity Pressure Visibility Wind Dir Wind Speed Gust Speed Precip Events Conditions
12:20 AM 30.2 °F 19.3 °F 21.2 °F 69% 30.05 in 9.0 mi NNW 15.0 mph 21.9 mph 0.00 in Snow Light Snow
12:54 AM 30.0 °F 19.5 °F 19.9 °F 66% 30.09 in 10.0 mi North 13.8 mph - 0.00 in Snow Light Snow
1:54 AM 30.0 °F 19.1 °F 14.0 °F 51% 30.12 in 9.0 mi North 15.0 mph 23.0 mph 0.00 in Snow Light Snow
2:54 AM 28.0 °F 16.5 °F 16.0 °F 61% 30.14 in 9.0 mi North 15.0 mph - 0.00 in Snow Light Snow
3:54 AM 26.1 °F 15.0 °F 15.1 °F 63% 30.18 in 9.0 mi NNE 12.7 mph - 0.00 in Snow Light Snow
4:54 AM 23.0 °F 13.9 °F 12.0 °F 63% 30.23 in 9.0 mi North 8.1 mph - 0.00 in   Partly Cloudy
5:54 AM 21.9 °F 15.7 °F 12.0 °F 66% 30.27 in 10.0 mi North 4.6 mph - N/A   Partly Cloudy
6:54 AM 21.0 °F 11.4 °F 10.0 °F 63% 30.30 in 10.0 mi NNE 8.1 mph - N/A   Partly Cloudy
7:54 AM 21.0 °F 11.4 °F 7.0 °F 55% 30.33 in 10.0 mi NNE 8.1 mph - N/A   Scattered Clouds
8:54 AM 23.0 °F 18.4 °F 7.0 °F 50% 30.35 in 10.0 mi NNE 3.5 mph - N/A   Scattered Clouds
9:54 AM 26.1 °F - 3.9 °F 39% 30.33 in 10.0 mi Calm Calm - N/A   Scattered Clouds
10:54 AM 26.1 °F - 3.0 °F 37% 30.33 in 10.0 mi Calm Calm - N/A   Scattered Clouds
11:54 AM 28.9 °F - 3.9 °F 35% 30.32 in 10.0 mi Calm Calm - N/A   Mostly Cloudy
12:54 PM 30.9 °F 27.5 °F 5.0 °F 33% 30.31 in 10.0 mi NE 3.5 mph - N/A   Mostly Cloudy
1:54 PM 30.9 °F 23.5 °F 9.0 °F 40% 30.30 in 10.0 mi West 8.1 mph - N/A   Overcast
2:54 PM 30.9 °F 23.5 °F 12.9 °F 47% 30.27 in 10.0 mi SW 8.1 mph - N/A   Overcast
3:54 PM 33.1 °F 26.9 °F 14.0 °F 46% 30.25 in 10.0 mi SW 6.9 mph - N/A   Overcast
4:54 PM 33.1 °F 26.9 °F 12.9 °F 43% 30.23 in 10.0 mi WSW 6.9 mph - N/A   Scattered Clouds
5:54 PM 33.1 °F 30.0 °F 10.9 °F 40% 30.21 in 10.0 mi SSE 3.5 mph - N/A   Scattered Clouds
6:54 PM 30.9 °F 26.2 °F 10.0 °F 42% 30.21 in 10.0 mi SSE 4.6 mph - N/A   Partly Cloudy
7:54 PM 27.0 °F 19.5 °F 12.0 °F 53% 30.17 in 10.0 mi SSE 6.9 mph - N/A   Scattered Clouds
8:54 PM 27.0 °F 20.5 °F 12.9 °F 56% 30.13 in 10.0 mi SSE 5.8 mph - N/A   Scattered Clouds
9:54 PM 34.0 °F 26.0 °F 14.0 °F 44% 30.08 in 10.0 mi SW 10.4 mph - N/A   Scattered Clouds
10:54 PM 35.1 °F 24.5 °F 15.1 °F 44% 30.03 in 10.0 mi SW 18.4 mph 26.5 mph N/A   Scattered Clouds
11:54 PM 36.0 °F 25.6 °F 15.1 °F 43% 30.02 in 10.0 mi SW 18.4 mph 24.2 mph N/A   Scattered Clouds